User: anonymous   Login
Location: Asheville, NC
(35.6000°N, 82.5500°W)
Time: 06:23:42
(UTC-05:00)
Language:

JUGNU - Orbit

View from above orbital plane
View from above orbital plane
View from above satellite
View from above satellite

Ground track
Ground track

The orbit data is extracted from the following two-line orbital elements,

1 37839U 11058B   18019.95029477 +.00000311 +00000-0 +24327-4 0  9994
2 37839 019.9597 216.1244 0018934 052.9024 093.7168 14.12607009324271
Epoch (UTC): 19 January 2018 22:48:25
Eccentricity: 0.0018934
inclination: 19.9597°
perigee height: 837 km
apogee height: 864 km
right ascension of ascending node: 216.1244°
argument of perigee: 52.9024°
revolutions per day: 14.12607009
mean anomaly at epoch: 93.7168°
orbit number at epoch: 32427

The dashed part of the orbit path shows where the satellite is in the earth's shadow,  

DLR